Weather in Perivolia

Cyprus     34°49′50″N   33°34′50″E
temp.,
°C
wind,
m/s
gust,
m/s
humid.,
%
clouds,
%
prec.,
mm/h
press.,
hPa
HPBL,
m
13 april, tue
tue1300:00+13nnw22510 0.0 1021144
03:00+12n11490 0.0 1020131
06:00+12n11460 0.0 1020136
09:00+14e11390 0.0 1021330
12:00+16sse43450 0.0 1021794
15:00+17ssw65495 0.0 1021815
18:00+16sw6657100 0.0 1020567
21:00+15w33625 0.0 1021233
14 april, wed
wed1400:00+14n22600 0.0 1020133
03:00+13n22632 0.0 1020118
06:00+13nne226618 0.0 1020149
09:00+15ene1159100 0.0 1021316
12:00+17sse32585 0.0 1020597
15:00+17s32595 0.0 1019597
18:00+17sw33555 0.0 1018372
21:00+16nw2360100 0.0 1019138
15 april, thu
thu1500:00+15ne456748 0.0 1018213
03:00+15nne3367100 0.0 1017149
06:00+15ne237023 0.0 1017144
09:00+17ene22669 0.0 1018333
12:00+18se31625 0.0 1018406
15:00+19sse32615 0.0 1016343
18:00+19ssw22595 0.0 1016238
21:00+17ssw117291 0.0 101618
16 april, fri
fri1600:00+17ne1172100 0.0 101512
03:00+17ne2270100 0.0 101441
06:00+16ne3371100 0.0 101490
09:00+18ne2265100 0.0 1015183
12:00+19se3262100 0.0 1015326
15:00+20s325956 0.0 1015277
18:00+19ssw11595 0.0 1014176
21:00+18w22670 0.0 101514
17 april, sat
sat1700:00+18nw11665 0.0 101511
03:00+17ne3365100 0.0 101441
06:00+17ne33755 0.0 101475
09:00+20ne226282 0.0 1016175
12:00+21se3256100 0.0 1015312
15:00+21sse2256100 0.0 1015250
18:00+20s2258100 0.0 1014125
21:00+19wnw0165100 0.0 101511